Location: Newark
(49.8969°N, 3.3422°E)
Time: 13:41:12
(UTC+00:00)

A-11 Canister half - Pass Details

Date: 29 January 2020
Orbit: 1517 x 1683 km, 47.2° (Epoch: 24 February)

Event Time Altitude Azimuth Distance (km) Brightness Sun altitude
Exits shadow 05:34:54 20° 253° (WSW) 2,947 9.9 -17.6°
Maximum altitude 05:38:00 24° 227° (SW) 2,729 10.0 -17.2°
Drops below altitude 10° 05:44:57 10° 177° (S) 3,703 11.1 -16.0°
Sets 05:48:45 0° 165° (SSE) 4,703 11.9 -15.4°
